• In Italy
  • List of Countries
  • For 7 days
  • Water Temperature
  • Satellite Maps
  • Weather Map
  • Weather Widgets
  • user-avatar
    Login

    Hourly Weather Frederiksvaerk

    Today, 23 October, Tuesday

    Time Temperature Precipitation Wind Pressure Humidity
    00:00 +7°C° 1 mm 13 mps 761 mmHg 75%
    01:00 +8°C° 1 mm 14 mps 760 mmHg 79%
    02:00 +8°C° 2 mm 14 mps 758 mmHg 80%
    03:00 +8°C° 2 mm 15 mps 756 mmHg 82%
    04:00 +8°C° 2 mm 15 mps 755 mmHg 84%
    05:00 +9°C° 1 mm 15 mps 754 mmHg 83%
    06:00 +9°C° 1 mm 15 mps 753 mmHg 82%
    07:00 +10°C° 1 mm 15 mps 752 mmHg 81%
    08:00 +10°C° 0.6 mm 15 mps 751 mmHg 79%
    09:00 +10°C° 0.6 mm 15 mps 751 mmHg 77%
    10:00 +10°C° 0.6 mm 15 mps 751 mmHg 75%
    11:00 +10°C° 0.2 mm 15 mps 751 mmHg 72%
    12:00 +11°C° 0.2 mm 15 mps 750 mmHg 69%
    13:00 +11°C° 0.2 mm 15 mps 750 mmHg 66%
    14:00 +10°C° 0.1 mm 15 mps 750 mmHg 66%
    15:00 +10°C° 0.1 mm 15 mps 750 mmHg 66%
    16:00 +10°C° 0.1 mm 14 mps 750 mmHg 65%
    17:00 +9°C° 0.1 mm 15 mps 750 mmHg 66%
    18:00 +9°C° 0.1 mm 15 mps 750 mmHg 66%
    19:00 +9°C° 0.1 mm 15 mps 749 mmHg 66%
    20:00 +8°C° 0.1 mm 15 mps 750 mmHg 64%
    21:00 +8°C° 0.1 mm 15 mps 750 mmHg 61%
    22:00 +8°C° 0.1 mm 15 mps 750 mmHg 59%
    23:00 +6°C° 0.1 mm 14 mps 751 mmHg 57%

    Tomorrow, 24 October, Wednesday

    Time Temperature Precipitation Wind Pressure Humidity
    00:00 +7°C° 0.1 mm 13 mps 751 mmHg 54%
    01:00 +5°C° 0.1 mm 13 mps 752 mmHg 52%
    02:00 +5°C° 0.1 mm 12 mps 753 mmHg 53%
    03:00 +5°C° 0.1 mm 12 mps 753 mmHg 54%
    04:00 +6°C° 0.1 mm 11 mps 754 mmHg 54%
    05:00 +4°C° 0 mm 11 mps 755 mmHg 52%
    06:00 +4°C° 0 mm 11 mps 755 mmHg 50%
    07:00 +5°C° 0 mm 10 mps 756 mmHg 48%
    08:00 +6°C° 0 mm 10 mps 757 mmHg 47%
    09:00 +6°C° 0 mm 10 mps 757 mmHg 46%
    10:00 +7°C° 0 mm 10 mps 758 mmHg 45%
    11:00 +7°C° 0 mm 10 mps 758 mmHg 45%
    12:00 +8°C° 0 mm 9 mps 759 mmHg 45%
    13:00 +8°C° 0 mm 9 mps 759 mmHg 45%
    14:00 +8°C° 0 mm 9 mps 759 mmHg 48%
    15:00 +7°C° 0 mm 8 mps 759 mmHg 52%
    16:00 +7°C° 0 mm 8 mps 759 mmHg 55%
    17:00 +6°C° 0 mm 8 mps 759 mmHg 60%
    18:00 +6°C° 0 mm 7 mps 759 mmHg 65%
    19:00 +5°C° 0 mm 7 mps 759 mmHg 69%
    20:00 +6°C° 0.1 mm 8 mps 759 mmHg 72%
    21:00 +6°C° 0.1 mm 8 mps 758 mmHg 75%
    22:00 +6°C° 0.1 mm 8 mps 757 mmHg 78%
    23:00 +7°C° 0.8 mm 9 mps 756 mmHg 81%

    Day after tomorrow, 25 October, Thursday

    Time Temperature Precipitation Wind Pressure Humidity
    00:00 +8°C° 0.8 mm 10 mps 755 mmHg 85%
    01:00 +9°C° 0.8 mm 11 mps 755 mmHg 89%
    02:00 +9°C° 0.1 mm 12 mps 754 mmHg 85%
    03:00 +9°C° 0.1 mm 13 mps 753 mmHg 81%
    04:00 +10°C° 0.1 mm 13 mps 753 mmHg 77%
    05:00 +9°C° 0.1 mm 13 mps 753 mmHg 75%
    06:00 +9°C° 0.1 mm 14 mps 753 mmHg 73%
    07:00 +8°C° 0.1 mm 14 mps 753 mmHg 71%
    08:00 +8°C° 0 mm 14 mps 753 mmHg 69%
    09:00 +9°C° 0 mm 13 mps 753 mmHg 67%
    10:00 +9°C° 0 mm 13 mps 753 mmHg 65%
    11:00 +9°C° 0 mm 13 mps 753 mmHg 64%
    12:00 +9°C° 0 mm 13 mps 753 mmHg 63%
    13:00 +10°C° 0 mm 13 mps 753 mmHg 62%
    14:00 +9°C° 0 mm 12 mps 753 mmHg 64%
    15:00 +9°C° 0 mm 11 mps 753 mmHg 65%
    16:00 +9°C° 0 mm 11 mps 754 mmHg 67%
    17:00 +8°C° 0 mm 10 mps 754 mmHg 69%
    18:00 +8°C° 0 mm 10 mps 754 mmHg 71%
    19:00 +8°C° 0 mm 9 mps 754 mmHg 72%
    20:00 +7°C° 0 mm 9 mps 754 mmHg 74%
    21:00 +7°C° 0 mm 8 mps 754 mmHg 75%
    22:00 +7°C° 0 mm 8 mps 754 mmHg 77%
    23:00 +7°C° 0 mm 8 mps 754 mmHg 76%

    26 October, Friday

    Time Temperature Precipitation Wind Pressure Humidity
    00:00 +8°C° 0 mm 7 mps 754 mmHg 75%
    01:00 +8°C° 0 mm 7 mps 754 mmHg 75%
    02:00 +8°C° 0.1 mm 7 mps 753 mmHg 75%
    03:00 +8°C° 0.1 mm 7 mps 753 mmHg 75%
    04:00 +7°C° 0.1 mm 6 mps 752 mmHg 76%
    05:00 +7°C° 0 mm 5 mps 752 mmHg 77%
    06:00 +7°C° 0 mm 5 mps 751 mmHg 77%
    07:00 +7°C° 0 mm 4 mps 751 mmHg 78%
    08:00 +8°C° 0.2 mm 5 mps 750 mmHg 79%
    09:00 +8°C° 0.2 mm 6 mps 749 mmHg 81%
    10:00 +9°C° 0.2 mm 7 mps 749 mmHg 82%
    11:00 +9°C° 0.5 mm 8 mps 748 mmHg 82%
    12:00 +10°C° 0.5 mm 8 mps 747 mmHg 82%
    13:00 +10°C° 0.5 mm 8 mps 747 mmHg 82%
    14:00 +10°C° 0.3 mm 8 mps 746 mmHg 80%
    15:00 +10°C° 0.3 mm 8 mps 745 mmHg 78%
    16:00 +10°C° 0.3 mm 8 mps 744 mmHg 76%
    17:00 +10°C° 0.4 mm 9 mps 744 mmHg 77%
    18:00 +8°C° 0.4 mm 9 mps 743 mmHg 78%
    19:00 +8°C° 0.4 mm 10 mps 742 mmHg 79%
    20:00 +7°C° 0.2 mm 10 mps 742 mmHg 77%
    21:00 +7°C° 0.2 mm 11 mps 741 mmHg 74%
    22:00 +7°C° 0.2 mm 11 mps 741 mmHg 72%
    23:00 +6°C° 0.1 mm 11 mps 740 mmHg 70%

    27 October, Saturday

    Time Temperature Precipitation Wind Pressure Humidity
    00:00 +5°C° 0.1 mm 12 mps 740 mmHg 69%
    01:00 +5°C° 0.1 mm 12 mps 739 mmHg 68%
    02:00 +5°C° 0.3 mm 12 mps 739 mmHg 69%
    03:00 +5°C° 0.3 mm 12 mps 738 mmHg 70%
    04:00 +6°C° 0.3 mm 11 mps 738 mmHg 71%
    05:00 +5°C° 0.2 mm 12 mps 738 mmHg 72%
    06:00 +4°C° 0.2 mm 12 mps 738 mmHg 73%
    07:00 +4°C° 0.2 mm 12 mps 738 mmHg 73%
    08:00 +4°C° 0.3 mm 12 mps 739 mmHg 73%
    09:00 +6°C° 0.3 mm 11 mps 739 mmHg 74%
    10:00 +6°C° 0.3 mm 11 mps 740 mmHg 74%
    11:00 +6°C° 0.4 mm 10 mps 741 mmHg 74%
    12:00 +6°C° 0.4 mm 10 mps 741 mmHg 74%
    13:00 +6°C° 0.4 mm 10 mps 742 mmHg 74%
    14:00 +6°C° 0.3 mm 10 mps 743 mmHg 74%
    15:00 +6°C° 0.3 mm 9 mps 743 mmHg 74%
    16:00 +6°C° 0.3 mm 9 mps 744 mmHg 73%
    17:00 +5°C° 0.4 mm 9 mps 745 mmHg 76%
    18:00 +5°C° 0.4 mm 9 mps 745 mmHg 78%
    19:00 +5°C° 0.4 mm 8 mps 746 mmHg 80%
    20:00 +3°C° 0.3 mm 9 mps 747 mmHg 79%
    21:00 +3°C° 0.3 mm 9 mps 748 mmHg 79%
    22:00 +2°C° 0.3 mm 9 mps 748 mmHg 78%
    23:00 +2°C° 0.1 mm 9 mps 749 mmHg 78%

    28 October, Sunday

    Time Temperature Precipitation Wind Pressure Humidity
    00:00 +1°C° 0.1 mm 8 mps 749 mmHg 78%
    01:00 +1°C° 0.1 mm 8 mps 750 mmHg 77%
    02:00 +1°C° 0 mm 8 mps 750 mmHg 77%
    03:00 +1°C° 0 mm 8 mps 750 mmHg 76%
    04:00 0°C° 0 mm 8 mps 751 mmHg 75%
    05:00 0°C° 0.1 mm 8 mps 751 mmHg 75%
    06:00 0°C° 0.1 mm 9 mps 751 mmHg 75%
    07:00 0°C° 0.1 mm 9 mps 752 mmHg 75%
    08:00 +1°C° 0.1 mm 9 mps 752 mmHg 72%
    09:00 +1°C° 0.1 mm 9 mps 753 mmHg 70%
    10:00 +1°C° 0.1 mm 9 mps 754 mmHg 68%
    11:00 +2°C° 0.1 mm 9 mps 754 mmHg 66%
    12:00 +2°C° 0.1 mm 9 mps 754 mmHg 64%
    13:00 +2°C° 0.1 mm 9 mps 755 mmHg 62%
    14:00 +2°C° 0.1 mm 9 mps 755 mmHg 62%
    15:00 +1°C° 0.1 mm 8 mps 755 mmHg 63%
    16:00 +1°C° 0.1 mm 8 mps 756 mmHg 63%
    17:00 +1°C° 0.1 mm 8 mps 756 mmHg 65%
    18:00 0°C° 0.1 mm 8 mps 757 mmHg 66%
    19:00 0°C° 0.1 mm 8 mps 757 mmHg 67%
    20:00 -1°C° 0.1 mm 7 mps 757 mmHg 68%
    21:00 -1°C° 0.1 mm 7 mps 758 mmHg 69%
    22:00 -2°C° 0.1 mm 6 mps 758 mmHg 71%
    23:00 -2°C° 0.1 mm 6 mps 758 mmHg 72%
    Show more